Location: Bothwell
(42.3833°S, 147.0000°E)
Time: 03:09:51
(UTC+11:00)

DIWATA 2B (PO-101) - Pass Details

Date: 27 September 2022
Orbit: 582 x 598 km, 98.0° (Epoch: 30 November)

Event Time Altitude Azimuth Distance (km) Brightness Sun altitude
Rises 02:35:15 0° 159° (SSE) 2,848 ? -34.4°
Reaches altitude 10° 02:37:35 10° 150° (SSE) 1,937 ? -34.1°
Enters shadow 02:39:19 22° 134° (SE) 1,333 ? -33.8°
